Date,TemperatureHighF,TemperatureAvgF,TemperatureLowF,DewpointHighF,DewpointAvgF,DewpointLowF,HumidityHigh,HumidityAvg,HumidityLow,PressureMaxIn,PressureMinIn,WindSpeedMaxMPH,WindSpeedAvgMPH,GustSpeedMaxMPH,PrecipitationSumIn
2013-1-1,43.5,32.8,21.7,22.0,16.6,9.0,89,55,30,30.38,30.28,13,5,19,0.00
2013-1-2,47.1,37.2,28.8,13.0,10.8,8.0,44,34,24,30.34,30.21,16,7,20,0.00
2013-1-3,48.9,40.6,33.9,14.0,9.9,7.0,37,29,19,30.34,30.23,16,7,20,0.00
2013-1-4,48.6,37.3,23.6,13.0,7.8,4.0,63,32,17,30.39,30.28,10,4,13,0.00
2013-1-5,49.3,34.6,20.6,22.0,11.2,5.0,74,43,17,30.45,30.26,4,2,12,0.00
2013-1-6,41.2,36.9,32.7,36.0,32.0,21.0,93,83,46,30.25,30.08,14,4,20,0.12
2013-1-7,51.9,40.5,33.1,32.0,26.4,20.0,88,60,32,30.24,30.11,15,5,24,0.00
2013-1-8,58.1,46.1,30.6,31.0,26.9,20.0,72,49,33,30.28,30.17,7,2,13,0.00
2013-1-9,61.8,48.0,32.5,35.0,30.4,27.0,81,53,31,30.25,29.95,11,4,21,0.00
2013-1-10,41.1,33.1,29.1,37.0,23.4,-99.9,87,74,58,30.14,29.90,28,-2,41,0.00
2013-1-11,33.3,30.2,27.4,23.0,21.4,18.0,76,70,63,30.26,30.14,17,4,31,0.00
2013-1-12,38.5,28.9,18.9,21.0,16.1,11.0,80,61,37,30.26,30.16,14,3,19,0.00
2013-1-13,39.7,27.6,16.1,17.0,12.0,3.0,80,55,31,30.30,30.15,12,3,18,0.00
2013-1-14,33.1,25.7,18.3,3.0,-0.6,-5.0,46,33,20,30.51,30.31,14,6,18,0.00
2013-1-15,43.4,35.6,28.0,15.0,6.2,-4.0,36,29,24,30.63,30.50,16,7,27,0.00
2013-1-16,50.3,43.3,36.5,21.0,17.8,15.0,45,36,29,30.52,30.34,22,9,25,0.00
2013-1-17,55.9,45.7,37.3,16.0,13.0,8.0,40,28,17,30.41,30.27,14,9,22,0.00
2013-1-18,56.1,47.2,41.8,11.0,9.1,7.0,26,21,16,30.33,30.21,11,7,20,0.00
2013-1-19,57.2,45.0,37.7,11.0,7.9,6.0,29,22,14,30.37,30.25,16,6,17,0.00
2013-1-20,57.4,45.1,33.0,9.0,7.5,6.0,35,22,13,30.33,30.20,9,3,15,0.00
2013-1-21,60.4,47.8,38.9,10.0,6.7,4.0,30,19,12,30.27,30.17,14,5,19,0.00
2013-1-22,59.2,44.1,31.9,14.0,8.5,5.0,48,25,13,30.27,30.16,6,2,14,0.00
2013-1-23,59.3,48.0,33.0,40.0,19.3,11.0,84,36,16,30.24,30.13,5,2,12,0.01
2013-1-24,49.1,46.0,42.7,46.0,43.7,39.0,95,92,82,30.25,30.13,6,2,9,0.51
2013-1-25,47.1,46.1,44.7,46.0,44.3,42.0,96,93,91,30.25,30.05,7,3,10,0.19
2013-1-26,54.6,48.7,44.0,47.0,44.9,42.0,97,87,70,30.04,29.91,19,4,28,0.12
2013-1-27,47.1,38.6,34.8,44.0,32.0,25.0,92,77,63,30.06,29.94,26,10,40,0.00
2013-1-28,39.1,35.7,32.5,27.0,25.3,23.0,74,66,53,30.26,30.06,28,8,35,0.00
2013-1-29,49.8,41.5,34.5,30.0,26.9,25.0,78,58,40,30.31,30.19,25,5,48,0.00
2013-1-30,59.4,46.5,32.3,31.0,29.5,27.0,82,54,33,30.41,30.28,11,4,15,0.00
2013-1-31,60.2,44.4,29.8,33.0,29.6,26.0,89,60,33,30.36,30.23,11,3,15,0.00
2013-2-1,61.4,44.9,30.1,35.0,30.8,26.0,88,61,34,30.32,30.22,8,2,12,0.00
2013-2-2,58.1,50.3,38.1,42.0,33.3,30.0,81,54,36,30.33,30.23,10,2,11,0.03
2013-2-3,61.7,50.4,38.4,42.0,33.4,21.0,90,57,28,30.22,30.07,16,4,20,0.00
2013-2-4,64.1,46.3,30.1,31.0,27.4,25.0,84,52,23,30.18,30.05,7,2,10,0.00
2013-2-5,63.7,47.8,29.8,41.0,32.5,25.0,89,59,26,30.11,29.96,19,5,36,0.00
2013-2-6,59.1,46.6,31.9,39.0,17.5,-2.0,83,40,9,30.13,29.99,20,5,35,0.00
2013-2-7,54.4,41.6,27.0,39.0,27.9,9.0,85,60,38,30.15,29.97,16,4,22,0.00
2013-2-8,39.2,33.4,29.1,35.0,28.7,23.0,92,83,67,29.97,29.86,14,3,23,0.03
2013-2-9,45.5,35.4,30.5,30.0,26.9,23.0,86,72,54,30.14,29.97,17,5,25,0.25
2013-2-10,48.0,36.9,28.0,33.0,29.1,24.0,92,75,48,30.14,30.02,13,4,16,0.00
2013-2-11,47.5,34.3,24.8,25.0,18.1,9.0,91,57,22,30.35,30.13,8,2,15,0.00
2013-2-12,52.9,36.7,21.0,22.0,15.5,10.0,78,47,21,30.47,30.35,5,1,9,0.00
2013-2-13,57.5,39.3,24.5,27.0,20.6,16.0,87,54,20,30.40,30.25,13,2,13,0.00
2013-2-14,62.0,46.5,30.1,27.0,22.5,20.0,72,41,21,30.33,30.21,11,3,20,0.00
2013-2-15,62.9,51.7,43.4,25.0,20.5,16.0,43,31,17,30.33,30.26,18,6,22,0.00
2013-2-16,61.6,48.0,30.8,21.0,18.0,16.0,65,32,18,30.31,30.05,11,2,11,0.00
2013-2-17,60.2,48.6,31.0,31.0,22.6,17.0,63,38,23,30.04,29.94,14,3,23,0.00
2013-2-18,57.4,44.4,30.6,39.0,30.5,21.0,86,62,31,30.04,29.91,20,6,30,0.00
2013-2-19,41.1,37.0,30.2,36.0,33.1,26.0,92,86,76,29.93,29.71,25,8,31,0.23
2013-2-20,38.3,32.6,27.1,27.0,25.3,24.0,90,75,59,30.08,29.69,31,12,47,0.02
2013-2-21,47.5,38.4,32.8,30.0,25.8,17.0,76,62,30,30.18,30.05,17,6,29,0.00
2013-2-22,56.6,40.0,22.8,32.0,24.2,20.0,88,57,30,30.29,30.18,7,2,17,0.00
2013-2-23,53.7,44.4,35.1,34.0,28.6,21.0,70,55,40,30.21,29.96,25,8,39,0.00
2013-2-24,49.7,39.4,29.8,29.0,9.3,1.0,70,31,16,30.31,30.10,17,6,23,0.00
2013-2-25,62.0,43.2,22.8,22.0,14.2,5.0,66,34,17,30.33,30.13,24,3,24,0.00
2013-2-26,56.9,47.4,39.3,26.0,18.1,10.0,55,33,18,30.22,30.07,20,6,26,0.00
2013-2-27,55.9,43.8,32.5,13.0,10.2,6.0,41,26,16,30.41,30.23,9,3,15,0.00
2013-2-28,62.0,46.6,27.3,22.0,13.4,8.0,65,30,12,30.48,30.39,8,2,11,0.00
2013-3-1,68.4,51.5,31.6,24.0,19.8,16.0,61,31,16,30.46,30.29,14,4,16,0.00
2013-3-2,72.5,54.0,32.6,28.0,23.2,20.0,66,34,15,30.34,30.12,8,3,16,0.00
2013-3-3,63.3,54.5,47.1,39.0,30.7,22.0,66,42,22,30.14,29.92,12,4,22,0.00
2013-3-4,65.4,52.2,43.8,42.0,37.6,32.0,88,60,30,30.08,29.96,12,3,21,0.00
2013-3-5,59.3,48.8,40.8,44.0,39.8,35.0,91,73,41,30.07,29.94,21,6,26,0.00
2013-3-6,43.8,41.1,38.0,40.0,36.9,34.0,91,85,80,30.10,30.00,23,7,27,0.00
2013-3-7,47.4,41.1,36.3,39.0,35.7,31.0,93,82,62,30.01,29.85,18,6,25,0.11
2013-3-8,43.4,37.2,31.7,36.0,33.0,30.0,94,85,69,30.07,29.79,11,3,19,0.37
2013-3-9,45.7,39.9,31.4,35.0,31.5,27.0,87,72,57,30.31,30.07,20,8,35,0.00
2013-3-10,61.1,46.0,29.4,27.0,20.7,12.0,87,43,15,30.42,30.28,12,3,18,0.00
2013-3-11,69.5,48.6,28.3,32.0,23.7,17.0,79,44,14,30.30,30.11,7,2,12,0.00
2013-3-12,72.8,53.2,32.6,30.0,25.2,20.0,76,40,14,30.20,30.09,8,3,14,0.00
2013-3-13,77.3,55.0,36.3,32.0,27.0,24.0,70,40,16,30.24,30.12,10,3,13,0.00
2013-3-14,83.6,60.3,38.3,35.0,30.2,27.0,68,37,13,30.18,30.05,7,3,16,0.00
2013-3-15,79.7,62.2,46.2,41.0,33.5,22.0,62,37,12,30.06,29.89,18,4,33,0.00
2013-3-16,68.6,60.3,53.6,41.0,34.3,26.0,56,39,22,29.93,29.86,27,11,42,0.00
2013-3-17,67.9,56.5,48.5,44.0,29.2,13.0,63,39,17,29.99,29.90,26,11,39,0.00
2013-3-18,70.5,58.7,47.3,39.0,22.7,10.0,58,27,12,30.02,29.93,18,5,31,0.00
2013-3-19,68.9,58.6,48.9,33.0,28.9,21.0,48,33,23,30.08,29.99,18,4,28,0.00
2013-3-20,64.7,56.1,47.1,40.0,36.7,28.0,65,50,25,30.06,29.95,25,6,31,0.00
2013-3-21,66.4,53.1,47.1,42.0,37.6,20.0,78,59,17,29.96,29.82,27,10,45,0.00
2013-3-22,62.4,50.4,43.4,37.0,29.3,25.0,69,47,26,29.96,29.81,36,12,49,0.00
2013-3-23,67.1,54.1,42.2,28.0,9.6,-12.0,43,19,6,30.07,29.95,20,6,29,0.00
2013-3-24,70.3,55.7,35.6,28.0,15.3,-13.0,46,23,6,30.05,29.91,13,3,24,0.00
2013-3-25,70.8,56.0,36.3,41.0,29.5,19.0,66,39,19,29.97,29.88,12,3,20,0.00
2013-3-26,69.6,54.9,39.9,42.0,35.4,30.0,74,51,28,29.93,29.86,12,3,17,0.00
2013-3-27,65.0,53.8,45.3,44.0,40.7,37.0,85,63,42,30.01,29.88,11,4,18,0.00
2013-3-28,70.5,54.1,40.9,45.0,39.2,33.0,94,62,31,30.07,29.98,11,2,23,0.00
2013-3-29,72.9,57.8,40.8,43.0,36.9,31.0,81,50,22,30.10,30.02,10,3,22,0.00
2013-3-30,70.6,58.9,46.8,41.0,34.7,26.0,65,42,25,30.06,29.96,15,6,23,0.00
2013-3-31,57.5,48.8,43.8,48.0,42.9,28.0,95,81,45,30.07,30.00,13,4,19,0.18
2013-4-1,58.0,48.5,40.7,45.0,42.6,39.0,95,81,60,30.15,30.04,12,4,29,0.01
2013-4-2,68.8,55.0,46.3,42.0,38.7,34.0,83,58,30,30.09,30.00,22,6,28,0.00
2013-4-3,77.5,59.7,37.9,43.0,35.3,31.0,77,45,20,30.10,29.99,9,3,15,0.00
2013-4-4,71.0,58.7,49.6,47.0,42.8,35.0,84,57,33,30.03,29.94,11,4,33,0.00
2013-4-5,59.1,53.5,49.8,47.0,43.3,36.0,83,69,53,30.04,29.97,26,9,41,0.00
2013-4-6,62.8,54.4,47.9,43.0,38.6,31.0,78,57,32,30.07,29.97,38,11,43,0.00
2013-4-7,64.6,55.1,48.3,43.0,37.6,28.0,80,54,28,29.99,29.80,30,9,40,0.00
2013-4-8,54.1,44.6,39.7,41.0,32.6,24.0,75,63,45,29.85,29.64,39,13,53,0.00
2013-4-9,59.1,49.4,40.0,27.0,23.3,18.0,56,38,22,30.08,29.85,21,8,33,0.00
2013-4-10,73.9,58.0,40.8,32.0,20.8,13.0,42,25,12,30.18,29.99,16,4,26,0.00
2013-4-11,73.2,61.9,51.3,43.0,37.7,31.0,62,42,25,29.99,29.70,14,5,25,0.00
2013-4-12,79.5,61.8,41.6,42.0,37.9,31.0,82,46,17,29.84,29.73,10,3,19,0.00
2013-4-13,70.0,57.8,45.3,48.0,43.8,36.0,92,62,42,29.82,29.71,20,8,26,0.00
2013-4-14,69.1,53.1,45.1,46.0,43.2,34.0,95,74,32,29.78,29.73,26,10,31,0.00
2013-4-15,54.8,47.5,41.8,43.0,41.1,32.0,92,79,60,29.82,29.75,26,7,26,0.00
2013-4-16,49.8,42.1,33.8,32.0,25.7,21.0,70,54,34,30.05,29.82,19,7,30,0.00
2013-4-17,55.2,46.1,35.5,25.0,19.2,15.0,54,36,21,30.22,30.05,16,6,24,0.00
2013-4-18,64.4,50.2,36.6,22.0,13.3,8.0,54,26,11,30.32,30.21,13,4,18,0.00
2013-4-19,75.2,56.3,32.6,29.0,19.3,6.0,64,28,9,30.26,30.01,22,4,30,0.00
2013-4-20,80.4,66.5,57.8,35.0,28.4,15.0,39,26,9,30.02,29.88,18,5,30,0.00
2013-4-21,81.3,62.4,38.8,38.0,27.2,-99.9,65,30,14,29.98,29.90,13,-7,20,0.00
2013-4-22,78.6,63.2,50.0,45.0,37.4,26.0,67,40,22,29.96,29.78,19,6,22,0.00
2013-4-23,76.8,62.0,46.7,41.0,29.4,17.0,77,36,11,29.94,29.80,15,4,23,0.00
2013-4-24,73.3,54.9,41.0,48.0,38.8,28.0,87,59,19,29.91,29.78,20,6,27,0.00
2013-4-25,66.0,53.2,45.1,44.0,42.5,40.0,91,70,42,30.08,29.88,18,8,27,0.00
2013-4-26,82.5,61.7,40.9,45.0,38.4,21.0,89,51,11,30.16,30.06,10,4,16,0.00
2013-4-27,87.6,69.8,48.0,40.0,32.6,16.0,57,29,8,30.12,29.96,10,4,26,0.00
2013-4-28,87.6,74.5,65.3,41.0,35.3,29.0,38,25,12,29.96,29.78,16,5,21,0.00
2013-4-29,85.4,71.4,53.6,45.0,34.4,23.0,51,28,14,29.79,29.66,15,5,20,0.00
2013-4-30,72.7,60.6,49.5,49.0,43.4,32.0,90,56,34,29.77,29.67,18,8,28,0.00
2013-5-1,78.7,63.3,43.2,47.0,20.8,-5.0,93,35,6,30.11,29.77,13,5,26,0.00
2013-5-2,75.4,63.9,52.4,10.0,0.2,-7.0,13,8,4,30.22,30.09,12,6,22,0.00
2013-5-3,85.1,65.3,41.6,23.0,9.4,-2.0,36,13,5,30.10,29.80,8,3,15,0.00
2013-5-4,74.5,62.7,48.9,46.0,31.9,16.0,84,36,12,29.80,29.62,19,7,31,0.00
2013-5-5,50.9,47.5,45.6,44.0,42.9,42.0,91,84,75,29.90,29.68,27,10,34,0.03
2013-5-6,53.9,47.9,45.2,48.0,44.2,41.0,94,87,71,30.00,29.87,17,7,23,0.44
2013-5-7,55.7,49.4,44.1,45.0,42.5,40.0,92,78,60,30.05,29.97,12,5,18,0.03
2013-5-8,65.1,52.8,44.9,47.0,43.9,42.0,93,74,49,30.08,30.03,13,6,19,0.00
2013-5-9,70.6,56.7,44.0,47.0,44.1,41.0,90,66,38,30.08,30.00,22,4,26,0.00
2013-5-10,83.6,68.4,56.7,49.0,44.1,37.0,67,45,19,30.08,29.98,23,6,24,0.00
2013-5-11,88.6,74.5,54.4,49.0,41.0,31.0,67,34,13,30.05,29.95,12,3,22,0.00
2013-5-12,92.2,79.3,68.3,50.0,42.2,34.0,49,29,14,30.02,29.89,12,4,19,0.00
2013-5-13,91.7,77.5,58.6,48.0,37.9,30.0,57,28,12,29.93,29.84,16,4,24,0.00
2013-5-14,80.2,67.8,55.9,43.0,33.8,23.0,58,31,12,29.90,29.81,16,4,31,0.00
2013-5-15,80.4,64.4,51.9,50.0,44.8,39.0,79,51,27,29.91,29.84,15,6,22,0.00
2013-5-16,72.3,60.8,47.7,47.0,40.8,34.0,84,49,30,29.88,29.82,19,6,31,0.00
2013-5-17,67.7,58.7,51.2,49.0,41.8,38.0,75,55,34,29.94,29.83,22,5,30,0.00
2013-5-18,72.8,62.0,52.7,37.0,29.7,24.0,50,31,18,29.99,29.91,18,9,37,0.00
2013-5-19,75.0,64.9,55.9,40.0,34.1,25.0,52,33,17,29.96,29.87,23,8,36,0.00
2013-5-20,84.1,68.6,49.6,43.0,32.3,21.0,59,30,11,29.99,29.86,18,4,31,0.00
2013-5-21,81.8,70.0,57.2,48.0,38.0,30.0,61,33,19,29.90,29.73,14,4,22,0.00
2013-5-22,72.0,60.4,51.7,46.0,32.2,21.0,43,35,27,29.77,29.68,21,8,32,0.00
2013-5-23,65.3,57.7,47.9,45.0,37.8,18.0,77,50,28,29.91,29.76,17,4,23,0.00
2013-5-24,69.7,55.8,38.3,47.0,37.1,26.0,79,52,33,29.94,29.88,17,5,26,0.00
2013-5-25,68.3,56.7,46.9,48.0,44.3,41.0,86,65,45,29.95,29.90,17,8,23,0.00
2013-5-26,71.8,59.6,46.7,46.0,40.1,36.0,82,51,30,30.00,29.92,22,5,27,0.00
2013-5-27,69.8,61.4,53.4,44.0,38.0,30.0,65,44,26,29.95,29.82,26,10,44,0.00
2013-5-28,62.4,58.0,51.7,49.0,45.6,41.0,78,64,50,29.85,29.74,27,12,48,0.00
2013-5-29,73.4,63.4,54.7,47.0,44.6,39.0,71,52,33,29.87,29.73,29,10,37,0.00
2013-5-30,81.2,69.7,58.4,43.0,30.3,18.0,52,26,10,29.83,29.75,21,8,34,0.00
2013-5-31,91.9,75.1,61.9,42.0,32.0,19.0,44,23,10,29.85,29.75,15,5,26,0.00
2013-6-1,112.3,75.2,51.6,45.0,33.1,-99.9,63,28,9,29.83,29.67,19,-10,33,0.00
2013-6-2,72.6,58.2,58.3,53.0,38.2,-99.9,82,60,46,29.66,29.62,13,-87,23,0.00
2013-6-3,78.6,65.4,49.1,53.0,46.2,40.0,90,53,30,29.79,29.63,24,9,28,0.00
2013-6-4,78.5,62.4,48.8,51.0,47.2,-99.9,95,64,32,29.88,29.77,20,-2,27,0.00
2013-6-5,83.2,68.3,54.0,51.0,47.0,42.0,79,50,27,29.90,29.80,17,8,25,0.00
2013-6-6,87.8,71.5,56.6,52.0,49.2,47.0,72,48,26,29.85,29.75,15,7,24,0.00
2013-6-7,99.5,75.3,55.7,52.0,48.5,34.0,79,46,11,29.79,29.66,14,4,19,0.00
2013-6-8,98.1,75.4,60.0,55.0,50.0,38.0,67,45,13,29.75,29.64,20,7,26,0.00
2013-6-9,83.0,71.5,61.1,49.0,38.4,16.0,61,35,8,29.78,29.73,22,9,26,0.00
2013-6-10,74.2,62.6,48.3,48.0,44.8,37.0,90,55,33,29.88,29.74,17,7,23,0.00
2013-6-11,88.7,72.2,53.3,47.0,43.0,35.0,75,40,15,29.91,29.81,17,7,25,0.00
2013-6-12,81.0,70.6,59.4,52.0,44.5,38.0,74,41,25,29.88,29.82,18,6,27,0.00
2013-6-13,83.9,70.1,55.8,52.0,39.4,23.0,79,38,16,29.91,29.83,14,5,25,0.00
2013-6-14,86.2,69.9,54.6,50.0,36.6,21.0,69,33,10,29.84,29.73,16,4,22,0.00
2013-6-15,77.8,64.5,49.2,49.0,44.7,33.0,86,53,25,29.90,29.77,18,5,25,0.00
2013-6-16,81.6,71.0,55.4,47.0,33.5,21.0,73,29,13,29.94,29.88,26,8,27,0.00
2013-6-17,81.7,71.7,62.1,40.0,34.9,28.0,39,27,17,29.90,29.84,28,11,34,0.00
2013-6-18,83.2,70.9,61.2,46.0,39.4,31.0,52,33,21,29.84,29.73,21,8,35,0.00
2013-6-19,73.9,62.1,50.1,43.0,29.5,15.0,56,33,11,29.83,29.74,35,10,40,0.00
2013-6-20,75.9,63.0,56.5,37.0,29.0,15.0,44,30,10,29.84,29.79,22,9,29,0.00
2013-6-22,85.5,74.5,61.7,48.0,38.4,-99.9,57,31,16,29.84,0.00,15,-31,18,0.00
2013-6-23,74.0,64.2,55.4,53.0,48.7,43.0,85,58,43,29.75,29.69,18,8,26,0.00
2013-6-24,65.7,57.1,50.8,53.0,51.3,49.0,95,82,61,29.91,29.74,19,9,28,0.00
2013-6-25,83.9,69.5,53.5,56.0,52.7,51.0,91,59,35,29.95,29.86,14,5,24,0.00
2013-6-26,90.9,77.0,60.8,57.0,54.2,51.0,72,47,31,29.90,29.84,18,5,22,0.00
2013-6-27,93.4,78.7,64.4,57.0,53.3,50.0,64,43,27,29.94,29.89,15,5,23,0.00
2013-6-28,97.9,82.2,64.6,57.0,51.7,42.0,60,37,21,29.92,29.79,17,4,21,0.00
2013-6-29,103.0,89.4,77.1,53.0,47.5,33.0,41,25,10,29.81,29.67,13,4,20,0.00
2013-6-30,105.2,88.8,73.7,54.0,46.1,37.0,44,24,10,29.70,29.60,12,4,20,0.00
2013-7-1,92.9,81.2,70.8,53.0,49.9,45.0,49,35,23,29.79,29.65,20,9,31,0.00
2013-7-2,95.1,81.0,70.4,53.0,47.8,40.0,46,33,17,29.86,29.78,18,8,27,0.00
2013-7-3,96.3,80.3,69.6,55.0,50.6,48.0,50,37,23,29.80,29.68,16,8,25,0.00
2013-7-4,92.7,79.2,68.3,53.0,50.9,49.0,52,39,24,29.72,29.63,19,9,27,0.00
2013-7-5,87.2,76.0,66.9,55.0,49.9,46.0,60,41,26,29.70,29.63,21,9,29,0.00
2013-7-6,88.7,74.8,64.5,54.0,51.0,48.0,64,45,25,29.71,29.64,20,6,23,0.00
2013-7-7,92.0,78.2,58.7,51.0,46.5,41.0,64,36,18,29.77,29.68,17,6,21,0.00
2013-7-8,96.2,78.3,62.2,43.0,36.0,30.0,42,24,10,29.89,29.77,14,3,19,0.00
2013-7-9,98.3,84.3,71.5,42.0,35.0,29.0,29,18,11,29.91,29.84,15,4,23,0.00
2013-7-10,93.4,79.3,70.6,54.0,44.2,36.0,56,31,16,29.87,29.76,17,6,22,0.00
2013-7-11,80.8,70.8,63.4,56.0,50.3,38.0,74,51,22,29.87,29.77,18,8,25,0.00
2013-7-12,85.2,73.3,62.7,56.0,50.8,42.0,77,48,28,29.86,29.79,17,7,26,0.00
2013-7-13,91.5,78.5,59.3,48.0,43.2,38.0,57,32,17,29.87,29.78,14,5,22,0.00
2013-7-14,91.0,78.6,74.4,39.0,27.8,-99.9,24,17,13,29.83,29.73,24,-45,29,0.00
2013-7-15,89.5,76.0,65.8,42.0,30.3,-99.9,34,20,15,29.75,29.68,20,-29,33,0.00
2013-7-16,85.5,70.4,52.6,34.0,23.5,-99.9,43,19,8,29.91,29.75,17,-15,23,0.00
2013-7-17,89.3,74.8,61.1,40.0,32.0,15.0,45,24,9,29.95,29.89,13,4,20,0.00
2013-7-18,95.8,74.8,56.5,41.0,29.5,-99.9,48,22,11,29.93,29.78,14,-39,20,0.00
2013-7-19,94.2,75.6,61.2,48.0,34.0,-99.9,41,25,14,29.81,29.70,16,-37,24,0.00
2013-7-20,89.6,76.1,63.1,59.0,48.1,37.0,56,39,20,29.76,29.66,22,8,27,0.00
2013-7-21,83.3,73.8,64.6,59.0,55.6,45.0,72,54,31,29.86,29.70,15,7,22,0.01
2013-7-22,83.5,71.6,59.5,61.0,57.0,51.0,86,62,43,29.91,29.82,18,6,26,0.17
2013-7-23,84.8,73.5,60.5,60.0,54.8,49.0,79,54,35,29.92,29.84,15,6,24,0.00
2013-7-24,91.3,76.3,62.2,55.0,52.9,51.0,70,47,27,29.89,29.79,15,6,18,0.00
2013-7-25,93.0,79.4,67.7,54.0,51.6,49.0,54,40,25,29.89,29.81,16,6,21,0.00
2013-7-26,91.4,78.7,71.1,61.0,54.2,48.0,59,44,31,29.95,29.87,13,4,19,0.05
2013-7-27,90.9,76.5,66.5,57.0,53.9,51.0,63,47,31,29.91,29.76,16,5,25,0.00
2013-7-28,84.2,72.8,63.6,54.0,51.3,45.0,67,49,26,29.79,29.73,20,9,31,0.00
2013-7-29,84.3,71.6,60.9,49.0,40.2,22.0,62,36,12,29.93,29.79,18,8,23,0.00
2013-7-30,84.8,72.3,59.5,50.0,44.7,36.0,57,39,21,30.00,29.93,14,5,22,0.00
2013-7-31,85.3,70.1,54.5,47.0,43.6,38.0,67,42,22,29.99,29.88,19,5,25,0.00
2013-8-1,82.4,71.8,59.4,46.0,37.8,29.0,54,31,18,29.91,29.82,21,7,29,0.00
2013-8-2,81.9,70.8,57.1,49.0,42.4,28.0,56,37,20,29.86,29.80,15,7,22,0.00
2013-8-3,82.9,70.0,56.1,47.0,42.8,36.0,61,40,23,29.90,29.83,18,8,26,0.00
2013-8-4,86.0,71.3,54.6,42.0,37.3,28.0,54,31,15,29.91,29.84,21,6,25,0.00
2013-8-5,86.3,73.1,54.1,38.0,28.6,17.0,41,21,8,29.91,29.84,20,6,25,0.00
2013-8-6,83.6,70.9,58.4,42.0,29.4,14.0,40,23,10,29.93,29.86,17,7,29,0.00
2013-8-7,81.4,68.3,52.7,42.0,36.7,24.0,54,34,16,29.96,29.90,18,5,24,0.00
2013-8-8,79.6,66.5,52.5,47.0,42.4,35.0,70,44,21,29.93,29.84,17,5,28,0.00
2013-8-9,80.8,67.1,54.5,48.0,41.3,24.0,70,44,13,29.90,29.84,19,6,23,0.00
2013-8-10,81.2,67.9,56.1,47.0,45.0,43.0,64,46,28,29.93,29.88,15,7,20,0.00
2013-8-11,85.6,71.7,59.4,48.0,44.4,41.0,58,39,24,29.91,29.81,13,5,22,0.00
2013-8-12,88.5,74.1,57.5,48.0,43.9,37.0,56,36,19,29.88,29.81,14,4,21,0.00
2013-8-13,92.8,78.3,59.9,45.0,39.8,32.0,51,27,12,29.87,29.80,15,4,19,0.00
2013-8-14,95.1,81.6,66.5,42.0,32.6,23.0,35,18,8,29.83,29.75,12,3,18,0.00
2013-8-15,93.1,79.4,62.1,50.0,36.2,20.0,41,23,7,29.85,29.78,17,4,24,0.00
2013-8-16,91.8,78.5,64.3,51.0,42.9,35.0,44,29,20,29.88,29.80,15,5,24,0.00
2013-8-17,93.4,78.6,63.0,46.0,40.2,34.0,42,26,14,29.87,29.73,15,4,22,0.00
2013-8-18,94.4,79.1,58.5,57.0,44.5,37.0,55,31,17,29.84,29.72,13,3,24,0.00
2013-8-19,92.6,79.0,68.2,59.0,54.5,47.0,64,45,25,29.86,29.74,17,6,25,0.00
2013-8-20,90.4,77.6,65.1,53.0,45.9,36.0,56,35,16,29.82,29.74,16,4,27,0.00
2013-8-21,91.1,79.2,67.0,43.0,35.3,23.0,39,22,12,29.85,29.75,16,6,28,0.00
2013-8-22,90.7,80.3,66.0,43.0,33.5,22.0,32,19,13,29.84,29.72,23,6,31,0.00
2013-8-23,89.0,76.3,64.4,44.0,32.2,24.0,36,21,13,29.79,29.67,16,4,23,0.00
2013-8-24,88.5,73.9,58.8,41.0,33.3,23.0,43,26,9,29.82,29.70,20,4,20,0.00
2013-8-25,87.0,72.0,50.1,42.0,33.9,21.0,60,27,11,29.89,29.79,16,5,21,0.00
2013-8-26,87.3,71.8,56.5,60.0,48.2,28.0,65,44,22,29.92,29.78,10,2,17,0.11
2013-8-27,87.5,72.2,59.8,62.0,57.3,53.0,83,61,38,29.84,29.72,15,3,21,0.00
2013-8-28,88.3,75.6,58.5,59.0,54.2,49.0,84,51,31,29.86,29.76,20,4,30,0.00
2013-8-29,95.9,80.2,61.8,52.0,47.9,44.0,59,34,21,29.90,29.82,12,3,19,0.00
2013-8-30,91.4,78.0,66.2,63.0,55.2,44.0,66,47,34,29.91,29.81,20,6,25,0.00
2013-8-31,85.9,76.3,70.2,64.0,62.2,60.0,77,63,46,29.88,29.79,20,9,26,0.00
2013-9-1,85.9,75.1,67.3,63.0,61.1,59.0,85,64,42,29.85,29.77,17,8,24,0.00
2013-9-2,88.2,77.1,65.9,61.0,56.4,49.0,79,52,32,29.85,29.75,13,5,24,0.00
2013-9-3,90.2,77.8,65.4,56.0,52.5,48.0,64,43,27,29.85,29.76,14,4,21,0.00
2013-9-4,93.6,78.9,61.4,53.0,49.8,47.0,67,38,23,29.88,29.78,14,3,21,0.00
2013-9-5,93.9,79.6,63.1,52.0,47.6,44.0,59,34,21,29.84,29.76,16,3,21,0.00
2013-9-6,94.1,78.8,62.3,48.0,44.3,41.0,59,32,18,29.84,29.74,13,3,22,0.00
2013-9-7,93.2,77.9,61.0,47.0,40.5,36.0,53,28,17,29.84,29.73,18,4,19,0.00
2013-9-8,91.4,77.8,62.8,47.0,39.9,36.0,37,27,17,29.80,29.67,16,4,20,0.00
2013-9-9,90.9,75.8,66.3,51.0,45.8,39.0,50,36,21,29.76,29.63,13,4,19,0.00
2013-9-10,80.9,70.5,60.8,50.0,39.5,28.0,59,34,18,29.84,29.69,22,10,27,0.00
2013-9-11,81.2,69.7,60.4,50.0,44.3,39.0,61,41,26,29.89,29.84,20,8,26,0.00
2013-9-12,85.9,71.8,56.7,44.0,39.2,33.0,54,33,18,29.88,29.79,13,4,20,0.00
2013-9-13,92.2,78.5,66.0,48.0,43.1,37.0,38,29,19,29.80,29.61,10,4,20,0.00
2013-9-14,93.8,78.2,57.9,51.0,43.1,35.0,60,32,14,29.67,29.58,12,3,21,0.00
2013-9-15,92.0,77.7,57.3,47.0,41.8,37.0,66,31,15,29.72,29.63,14,4,24,0.00
2013-9-16,89.8,75.4,58.7,44.0,36.3,30.0,54,26,16,29.77,29.67,20,4,23,0.00
2013-9-17,82.5,70.2,55.1,46.0,35.2,23.0,49,30,13,29.72,29.64,17,6,32,0.00
2013-9-18,82.6,67.9,55.4,48.0,39.2,30.0,58,37,15,29.74,29.67,11,4,22,0.00
2013-9-19,88.1,68.5,47.6,49.0,37.0,26.0,67,38,12,29.83,29.71,9,2,15,0.00
2013-9-20,79.4,65.6,54.5,54.0,45.4,32.0,89,51,26,29.79,29.71,22,6,27,0.00
2013-9-21,69.4,57.8,52.3,52.0,49.8,42.0,94,76,53,29.81,29.73,21,8,32,0.00
2013-9-22,62.5,55.1,49.1,46.0,40.0,36.0,79,59,38,29.91,29.77,23,9,42,0.00
2013-9-23,81.9,64.9,49.5,40.0,35.6,31.0,63,37,18,29.98,29.87,13,4,19,0.00
2013-9-24,82.7,67.8,53.3,40.0,34.9,31.0,45,31,17,29.92,29.79,19,5,24,0.00
2013-9-25,69.3,59.7,51.5,50.0,41.2,37.0,62,51,39,29.78,29.62,27,7,28,0.00
2013-9-26,58.4,51.8,45.5,38.0,33.2,27.0,71,51,33,29.92,29.68,26,9,34,0.00
2013-9-27,68.6,56.8,46.7,33.0,26.1,18.0,56,33,17,30.08,29.92,12,4,28,0.00
2013-9-28,75.5,57.9,43.2,26.0,20.5,-99.9,48,26,12,30.11,30.00,11,-9,16,0.00
2013-9-29,82.2,66.3,47.3,30.0,24.0,18.0,43,22,11,30.10,29.97,19,5,22,0.00
2013-9-30,77.6,68.5,61.4,41.0,34.7,28.0,47,29,21,29.98,29.82,20,7,31,0.00
2013-10-1,78.5,65.3,51.8,50.0,39.8,27.0,60,41,24,29.87,29.81,17,4,22,0.00
2013-10-2,72.6,63.1,55.8,50.0,45.8,37.0,71,55,35,29.86,29.80,17,8,29,0.00
2013-10-3,66.0,59.5,52.4,40.0,31.2,21.0,51,36,18,29.90,29.77,27,7,36,0.00
2013-10-4,67.1,57.4,48.0,28.0,17.1,12.0,36,22,12,30.16,29.91,15,8,25,0.00
2013-10-5,71.5,59.4,47.6,22.0,16.8,13.0,30,20,11,30.28,30.16,20,8,24,0.00
2013-10-6,76.6,61.4,46.4,21.0,15.4,11.0,35,18,9,30.19,30.03,14,5,16,0.00
2013-10-7,78.2,60.1,42.5,25.0,18.1,13.0,42,22,9,30.03,29.89,17,5,23,0.00
2013-10-8,68.6,57.1,47.0,48.0,33.5,18.0,85,45,24,29.91,29.71,23,9,29,0.00
2013-10-9,49.3,45.1,35.8,44.0,40.6,33.0,92,84,74,29.80,29.63,21,8,35,0.11
2013-10-10,58.9,46.2,34.9,43.0,38.9,33.0,94,77,52,30.05,29.80,19,7,25,0.01
2013-10-11,70.8,52.8,36.3,44.0,38.8,35.0,94,64,28,30.09,29.96,15,3,17,0.00
2013-10-12,70.7,56.0,43.0,43.0,34.1,30.0,72,47,24,29.99,29.86,16,4,23,0.00
2013-10-13,65.1,53.0,42.1,44.0,36.3,26.0,80,55,31,30.04,29.87,13,5,22,0.00
2013-10-14,67.4,54.4,37.2,35.0,29.6,23.0,78,42,22,30.15,30.01,13,4,17,0.00
2013-10-15,68.5,57.2,46.0,28.0,24.9,20.0,45,30,19,30.06,29.97,9,4,14,0.00
2013-10-16,67.6,55.2,40.1,25.0,21.0,18.0,55,28,16,30.17,30.05,13,5,16,0.00
2013-10-17,76.1,58.7,36.9,32.0,27.7,21.0,63,33,15,30.09,29.95,12,4,20,0.00
2013-10-18,74.3,57.0,39.3,31.0,23.9,18.0,65,32,14,30.08,29.99,13,3,17,0.00
2013-10-19,77.2,56.8,36.9,28.0,19.7,12.0,60,28,9,30.13,30.02,8,2,13,0.00
2013-10-20,80.7,58.9,37.6,31.0,23.2,10.0,57,30,8,30.04,29.89,12,3,17,0.00
2013-10-21,77.0,58.0,38.3,27.0,21.4,16.0,64,28,11,30.02,29.94,11,3,15,0.00
2013-10-22,76.6,58.8,41.6,25.0,20.5,16.0,45,25,13,30.07,29.93,12,3,15,0.00
2013-10-23,76.8,58.3,42.2,37.0,24.2,20.0,57,30,13,29.96,29.87,8,2,13,0.00
2013-10-24,78.8,63.0,42.8,44.0,29.0,20.0,72,32,12,30.01,29.91,10,3,17,0.00
2013-10-25,79.7,62.7,42.8,30.0,25.6,22.0,54,27,12,30.09,30.00,10,2,10,0.00
2013-10-26,78.6,59.5,41.5,30.0,25.7,21.0,57,32,12,30.15,30.02,7,2,10,0.00
2013-10-27,75.6,58.2,42.6,45.0,29.4,19.0,91,38,13,30.03,29.70,21,6,29,0.00
2013-10-28,51.6,45.7,42.2,45.0,40.2,37.0,93,82,59,29.92,29.65,31,10,34,0.01
2013-10-29,51.8,45.5,39.1,40.0,38.1,36.0,91,76,57,30.02,29.91,16,4,16,0.00
2013-10-30,58.6,47.0,34.5,36.0,31.6,25.0,84,58,32,30.13,30.02,15,4,20,0.00
2013-10-31,63.2,49.1,30.9,34.0,27.2,22.0,85,49,23,30.22,30.13,16,4,19,0.00
2013-11-1,68.2,55.5,37.6,28.0,24.3,22.0,61,31,21,30.21,30.06,16,5,16,0.00
2013-11-2,73.4,54.0,35.1,30.0,26.9,24.0,67,39,17,30.09,29.89,10,3,18,0.00
2013-11-3,67.1,54.2,44.5,46.0,35.7,28.0,81,52,26,29.90,29.76,12,4,26,0.00
2013-11-4,60.8,48.9,41.1,37.0,28.4,24.0,73,47,27,30.02,29.75,13,5,23,0.00
2013-11-5,56.6,48.3,40.6,24.0,15.0,6.0,47,28,16,30.29,30.02,17,7,22,0.00
2013-11-6,62.6,52.9,44.7,14.0,10.7,8.0,22,19,14,30.38,30.26,15,8,20,0.00
2013-11-7,66.9,52.8,40.6,22.0,17.3,11.0,46,26,16,30.26,30.09,8,2,15,0.00
2013-11-8,73.6,55.7,34.7,31.0,20.8,5.0,57,30,7,30.11,29.98,13,4,17,0.00
2013-11-9,71.8,57.0,44.2,30.0,16.2,7.0,39,23,8,30.09,29.99,10,2,16,0.00
2013-11-10,69.1,49.9,34.5,23.0,18.9,16.0,57,33,14,30.20,30.08,6,2,9,0.00
2013-11-11,69.2,55.6,40.0,24.0,19.2,17.0,42,25,17,30.23,30.12,10,3,16,0.00
2013-11-12,70.7,59.2,43.5,21.0,17.7,15.0,39,21,13,30.26,30.16,11,3,12,0.00
2013-11-13,71.9,56.8,39.4,29.0,21.7,16.0,46,28,13,30.18,30.04,15,4,19,0.00
2013-11-14,74.4,58.4,42.4,29.0,25.7,23.0,51,30,17,30.07,29.76,7,2,13,0.00
2013-11-15,60.9,53.1,45.6,46.0,37.0,28.0,84,56,34,29.76,29.60,15,6,25,0.00
2013-11-16,52.9,47.3,44.2,44.0,41.4,33.0,90,80,64,29.92,29.70,16,7,26,0.00
2013-11-17,60.6,48.5,36.8,43.0,38.8,32.0,92,72,36,30.13,29.92,13,4,18,0.00
2013-11-18,62.0,47.9,33.2,45.0,38.9,30.0,90,73,44,30.19,30.06,13,4,18,0.00
2013-11-19,59.3,49.4,44.3,44.0,42.9,41.0,90,79,51,30.08,29.93,17,9,24,0.00
2013-11-20,54.6,48.7,46.0,47.0,45.0,43.0,94,87,70,29.95,29.84,22,9,27,0.04
2013-11-21,57.0,47.8,38.4,49.0,44.1,36.0,95,87,71,29.96,29.80,13,3,17,0.50
2013-11-22,39.2,37.6,36.5,37.0,35.0,34.0,94,90,81,30.10,29.95,11,5,19,0.19
2013-11-23,42.3,39.0,36.5,38.0,36.5,35.0,94,90,86,30.20,30.08,8,4,12,0.04
2013-11-24,49.0,41.6,33.6,39.0,36.1,31.0,92,81,63,30.29,30.19,10,4,14,0.00
2013-11-25,56.5,45.1,31.0,36.0,32.2,29.0,94,64,38,30.37,30.28,11,3,13,0.00
2013-11-26,56.5,50.2,45.9,36.0,34.0,32.0,63,54,44,30.31,30.15,12,6,18,0.00
2013-11-27,55.2,46.3,39.0,38.0,34.4,31.0,77,64,49,30.15,29.96,9,2,13,0.00
2013-11-28,51.6,44.4,38.0,36.0,33.8,31.0,78,67,52,30.14,29.98,9,2,12,0.00
2013-11-29,51.6,46.5,40.4,38.0,34.3,32.0,75,63,56,30.27,30.14,12,4,14,0.00
2013-11-30,57.9,48.0,37.6,34.0,31.8,30.0,76,55,37,30.30,30.19,10,3,12,0.00
2013-12-1,59.3,46.6,33.5,31.0,28.7,26.0,84,53,30,30.38,30.26,12,3,18,0.00
2013-12-2,71.8,50.5,32.1,32.0,24.4,18.0,82,44,13,30.28,29.94,15,2,16,0.00
2013-12-3,56.7,47.8,35.5,44.0,31.9,22.0,92,57,34,29.94,29.67,23,6,37,0.01
2013-12-4,42.3,34.0,25.1,23.0,17.3,13.0,73,53,31,30.05,29.76,30,6,45,0.00
2013-12-5,41.5,30.7,20.3,17.0,13.1,5.0,79,51,30,30.19,30.04,8,2,10,0.00
2013-12-6,43.5,34.5,19.5,31.0,25.8,14.0,82,71,54,30.23,30.14,19,6,23,0.00
2013-12-7,36.6,33.0,29.3,34.0,26.4,18.0,93,77,61,30.17,30.01,23,7,40,0.11
2013-12-8,36.4,30.2,26.1,19.0,15.2,12.0,64,54,43,30.35,30.16,14,4,22,0.00
2013-12-9,37.6,29.2,22.0,12.0,3.8,-4.0,60,37,19,30.55,30.33,23,11,26,0.00
2013-12-10,40.9,33.3,26.9,4.0,-0.4,-5.0,31,24,19,30.54,30.31,16,7,22,0.00
2013-12-11,46.2,37.7,21.2,9.0,6.4,2.0,59,28,20,30.41,30.32,17,-4,20,0.00
2013-12-12,53.2,42.4,32.8,15.0,11.7,8.0,48,29,20,30.36,30.21,9,3,13,0.00
2013-12-13,58.6,44.6,30.6,15.0,12.0,8.0,53,29,15,30.35,30.19,12,3,19,0.00
2013-12-14,53.5,45.7,38.7,20.0,17.0,14.0,41,32,25,30.46,30.34,16,10,25,0.00
2013-12-15,56.9,50.0,42.6,19.0,17.4,16.0,35,28,21,30.45,30.29,16,9,21,0.00
2013-12-16,60.8,53.4,48.9,20.0,17.9,16.0,32,25,20,30.33,30.22,15,6,17,0.00
2013-12-17,62.6,52.2,42.1,24.0,19.9,18.0,48,29,19,30.29,30.11,11,3,16,0.00
2013-12-18,65.6,52.1,44.1,42.0,29.5,21.0,84,46,21,30.11,29.75,18,5,27,0.00
2013-12-19,44.7,40.7,37.4,40.0,36.6,32.0,90,85,78,29.86,29.66,26,7,33,0.13
2013-12-20,46.9,38.1,28.5,33.0,28.5,23.0,86,70,41,30.04,29.85,11,3,16,0.00
2013-12-21,57.2,44.1,29.0,38.0,30.9,24.0,86,61,46,30.13,29.96,11,3,15,0.00
2013-12-22,55.5,41.5,29.4,33.0,29.3,25.0,90,65,38,30.39,30.13,7,2,9,0.00
2013-12-23,56.7,49.1,41.6,30.0,27.9,25.0,56,45,36,30.46,30.34,15,7,17,0.00
2013-12-24,58.9,50.6,40.6,31.0,28.8,26.0,60,44,34,30.35,30.24,13,7,17,0.00
2013-12-25,57.0,50.1,44.5,28.0,23.3,16.0,49,36,26,30.38,30.27,16,10,25,0.00
2013-12-26,56.8,50.9,44.7,17.0,12.8,8.0,30,22,16,30.35,30.23,17,10,23,0.00
2013-12-27,61.4,49.7,38.1,18.0,8.6,3.0,44,21,10,30.30,30.14,14,4,19,0.00
2013-12-28,67.3,50.6,33.6,18.0,8.6,-4.0,46,22,6,30.14,29.98,13,3,19,0.00
2013-12-29,54.9,47.5,34.6,14.0,9.1,6.0,42,21,15,30.29,30.10,22,8,25,0.00
2013-12-30,59.5,46.7,32.5,14.0,7.6,4.0,41,22,12,30.35,30.25,8,2,10,0.00
2013-12-31,66.9,44.4,27.5,16.0,11.5,-2.0,58,31,7,30.30,30.16,11,2,12,0.00
2014-1-1,59.5,48.2,30.7,17.0,12.8,8.0,53,26,15,30.27,30.19,13,4,19,0.00
2014-1-2,59.5,48.4,36.8,24.0,20.4,16.0,56,34,24,30.25,30.12,8,2,14,0.00